Regional Weather Roundup
Issued by NWS

Home | Current Version | Previous Version | Text Only | Print | Product List | Glossary On
Versions: 1 2 3 4 5 6 7 8 9 10 11 12 13 14 15 16 17 18 19 20 21 22 23 24 25 26 27 28 29 30 31 32 33 34 35 36 37 38 39 40 41 42 43 44 45 46 47 48 49 50
000
ASUS43 KMPX 282201
RWRMN
WEATHER ROUNDUP FOR MINNESOTA
NATIONAL WEATHER SERVICE TWIN CITIES/CHANHASSEN MN
500 PM CDT SAT MAR 28 2015


NOTE: "FAIR" INDICATES FEW OR NO CLOUDS BELOW 12,000 FEET WITH NO
SIGNIFICANT WEATHER AND/OR OBSTRUCTIONS TO VISIBILITY. N/A MEANS
CURRENT SKY AND/OR WEATHER CONDITIONS ARE NOT AVAILABLE.

MNZ060>063-068>070-282300-
   Twin Cities Metro

CITY           SKY/WX    TMP DP  RH WIND       PRES   REMARKS
TWIN CITIES    SUNNY     40  21  46 S16G22    30.12F
ST PAUL        SUNNY     41  19  41 S18       30.14F
CRYSTAL        SUNNY     43  19  38 S12G23    30.09F
BLAINE         SUNNY     45  21  39 S16G23    30.09F
LAKEVILLE      SUNNY     37  25  60 SE12      30.12F
EDEN PRAIRIE   SUNNY     43  20  39 S16G24    30.09F
SOUTH ST PAUL  SUNNY     42  20  41 S9G16     30.13F
LAKE ELMO      FAIR      41  19  42 S16       30.13F
$$
MNZ001>005-007-008-013>017-022>024-027-028-282300-
   Northwest Minnesota

CITY           SKY/WX    TMP DP  RH WIND       PRES   REMARKS
BEMIDJI        MOSUNNY   44  24  45 S20G26    29.89F
HALLOCK        CLOUDY    46  30  53 S26G36    29.74F
ROSEAU         PTSUNNY   45  28  53 S24G30    29.79F
WARROAD        MOSUNNY   45  30  57 S14G24    29.82F
THIEF RVR FALL PTSUNNY   45  28  53 S24       29.82F
CROOKSTON      CLOUDY    46  28  49 S30G37    29.83F
FOSSTON        MOSUNNY   45  25  45 S26G33    29.87F
DETROIT LAKES  SUNNY     43  28  56 S23       29.90F
MOORHEAD       SUNNY     50  27  40 S24G32    29.87F
PARK RAPIDS    SUNNY     47  23  38 S23G30    29.93F
MAHNOMEN       FAIR      45  27  49 S22G31    29.88F
$$
MNZ006-009>011-018-025>026-282300-
   North Central Minnesota

CITY           SKY/WX    TMP DP  RH WIND       PRES   REMARKS
BAUDETTE       PTSUNNY   43  22  43 S18       29.84F
FLAG ISLAND    PTSUNNY   37  28  70 S13G21    29.81F
INTL FALLS     MOSUNNY   45  13  27 SW17G25   29.89F
WASKISH        PTSUNNY   46  23  39 S10G21    29.88F
BIG FORK       MOSUNNY   45  18  33 S15G26    29.93F
LONGVILLE      SUNNY     45  19  36 S16G23    29.95F
GRAND RAPIDS   SUNNY     43  18  36 S21G28    29.95F
CRANE LAKE     MOSUNNY   43   3  19 S12G21    29.96F
ORR            SUNNY     43   5  21 S10G20    29.90F
COOK           SUNNY     43  10  26 SW12G20   29.95F
WALKER         FAIR      44  21  41 S13G29    29.93F
$$
MNZ012-019>021-037-282300-
   Northeast Minnesota

CITY           SKY/WX    TMP DP  RH WIND       PRES   REMARKS
DULUTH         SUNNY     43   7  22 SW14      30.01F
ELY            SUNNY     43   5  21 SW13G22   29.96F
HIBBING        SUNNY     43  12  28 SW15G23   29.97F
EVELETH        SUNNY     43   9  24 S17G26    29.98F
DULUTH HARBOR  SUNNY     45   3  18 SW20G26   30.05F
TWO HARBORS    SUNNY     45  18  33 S14       30.01F
SILVER BAY     SUNNY     43  10  26 S15G22    30.01F
GRAND MARAIS     N/A     30  21  69 S3        30.07F
G MARAIS ARPRT SUNNY     30   7  37 S8G17     30.01F WCI  23
$$
MNZ029>031-032-039>041-046>048-054>057-064-282300-
   West Central Minnesota

CITY           SKY/WX    TMP DP  RH WIND       PRES   REMARKS
FERGUS FALLS   SUNNY     46  25  42 S24G31    29.94F
WHEATON        SUNNY     46  30  53 S22G29    29.92F
MORRIS         SUNNY     46  32  57 S24G31    29.94F
ALEXANDRIA     PTSUNNY   41  27  57 S22G31    29.98F
ELBOW LAKE     FAIR      46  30  55 S25G31    29.94F
WADENA         PTSUNNY   43  27  52 S21G26    29.96F
GLENWOOD       PTSUNNY   43  28  56 S18G28    29.99F
APPLETON       SUNNY     52  28  40 S13G25    29.95F
BENSON         MOSUNNY   46  28  49 S20G26    29.98F
ORTONVILLE     SUNNY     52  28  40 S17       29.92F
MADISON        SUNNY     52  27  37 S22G30    29.94F
WILLMAR        FAIR      46  30  53 S12G23    30.02F
$$
MNZ033>034-036-042>043-049>051-058-059-282300-
   Central Minnesota

CITY           SKY/WX    TMP DP  RH WIND       PRES   REMARKS
ST CLOUD       SUNNY     43  21  41 S21       30.05F
SAUK CENTRE    CLOUDY    41  26  56 S24G30    30.00F
PAYNESVILLE    CLOUDY    39  25  58 SE14G23   30.04F
AITKIN         SUNNY     45  16  31 S16G24    29.99F
PINE RIVER     SUNNY     43  23  45 S18G25    30.00F
BRAINERD       SUNNY     43  18  36 S22       30.00F
STAPLES        PTSUNNY   41  23  48 S21G30    29.98F
LONG PRAIRIE   PTSUNNY   39  28  65 SE24      30.01F
LITTLE FALLS   MOSUNNY   43  21  42 S15G24    30.03F
LITCHFIELD     SUNNY     45  25  45 S7        30.05F
MAPLE LAKE     SUNNY     44  24  46 SE12G20   30.07F
$$
MNZ037-044-045-052-053-282300-
   East Central Minnesota

CITY           SKY/WX    TMP DP  RH WIND       PRES   REMARKS
PRINCETON      SUNNY     45  19  36 SE22      30.06F
MORA           SUNNY     43  18  36 S14G21    30.07F
CAMBRIDGE      SUNNY     45  25  45 S16       30.06F
RUSH CITY      SUNNY     42  15  33 S15       30.09S
MOOSE LAKE     SUNNY     43  18  36 S17G25    30.02F
HINCKLEY       FAIR      43  19  39 S16       30.07F
CLOQUET        SUNNY     43   9  24 SW14G24   30.02F
MCGREGOR       SUNNY     43  19  39 S14G20    30.02F
$$
MNZ071>073-080-081-089-090-097-098-282300-
   Southwest Minnesota

CITY           SKY/WX    TMP DP  RH WIND       PRES   REMARKS
MONTEVIDEO     SUNNY     48  30  49 SW18G28   29.98F
GRANITE FALLS  SUNNY     47  31  52 SE23G31   30.01F
CANBY          SUNNY     51  27  39 S17G26    29.95F
MARSHALL       SUNNY     48  28  46 S21G32    29.99F
REDWOOD FALLS  MOSUNNY   47  27  45 S23       30.02F
OLIVIA         MOSUNNY   45  30  57 S18       30.02F
PIPESTONE      SUNNY     48  28  46 S22G30    29.95F
WINDOM         SUNNY     46  27  46 S18G24    30.03F
WORTHINGTON    SUNNY     46  27  46 S23       30.02F
JACKSON        SUNNY     46  25  42 S20G25    30.05F
TRACY          SUNNY     48  31  50 S17G24    29.99F
SLAYTON        SUNNY     48  27  43 S21G29    29.99F
$$
MNZ065>067-074>077-082>085-091>093-282300-
   South Central Minnesota

CITY           SKY/WX    TMP DP  RH WIND       PRES   REMARKS
MANKATO        MOSUNNY   43  25  49 S15G22    30.09F
NEW ULM        SUNNY     46  25  42 S18G28    30.05F
ST JAMES       SUNNY     46  25  42 S21       30.06F
FAIRMONT       SUNNY     46  21  36 S21G28    30.06F
GLENCOE        SUNNY     43  28  54 S12G18    30.07F
FARIBAULT      SUNNY     39  25  56 SE13      30.12F
OWATONNA       SUNNY     39  27  60 SE10      30.12F
WASECA         SUNNY     43  27  52 S17       30.12F
ALBERT LEA     SUNNY     45  21  39 S13G21    30.11F
$$
MNZ078>079-086>088-094>096-282300-
   Southeast Minnesota

CITY           SKY/WX    TMP DP  RH WIND       PRES   REMARKS
ROCHESTER      SUNNY     35  20  54 SE14      30.15F WCI  26
RED WING       SUNNY     41  12  30 S14       30.15F
STANTON        SUNNY     39  24  54 S12G17    30.12F
DODGE CENTER   SUNNY     36  25  64 SE13      30.13F
WINONA         SUNNY     41  16  36 SW8       30.19F
AUSTIN         SUNNY     41  23  48 S12       30.12F
PRESTON        SUNNY     37  19  48 S10       30.16F
$$
ABBREVIATIONS USED IN REMARKS
   TC - TEMPERATURES IN CELSIUS
  WCI - WIND CHILL INDEX
   HX - HEAT INDEX
  VSB - VISIBILITY
$$


USA.gov is the U.S. government's official web portal to all federal, state and local government web resources and services.